Lapse_Rate
6.3 6.4 6.4 6.4 6.5 6.3 6.2 6.0 6.0 6.0 6.0 6.0 6.0 6.0 6.1 6.2 6.3 6.4 6.3 6.4 6.6 6.6 6.7 6.9 7.1 7.1 7.1 7.1 7.2 7.3 7.3 7.5 7.6 7.5 7.6 7.6 7.5 7.3 7.3 7.4 7.3 7.2 7.0
6.6 6.6 6.7 6.7 6.6 6.6 6.5 6.3 6.1 6.1 6.1 6.0 6.0 6.2 6.3 6.5 6.6 6.6 6.6 6.7 6.7 6.9 7.0 7.2 7.1 7.0 6.9 7.0 7.1 7.2 7.2 7.2 7.4 7.4 7.4 7.5 7.5 7.5 7.6 7.6 7.4 7.2 6.9
6.4 6.8 6.7 6.8 6.8 6.8 6.7 6.5 6.4 6.4 6.3 6.1 6.2 6.5 6.7 6.7 6.8 6.8 6.8 6.8 7.0 6.8 7.0 7.2 7.0 7.0 6.9 6.9 7.0 7.1 7.1 7.0 7.0 7.4 7.4 7.4 7.4 7.4 7.4 7.4 7.3 7.2 7.2
6.5 6.7 7.0 7.0 7.1 7.1 6.9 6.7 6.6 6.5 6.3 6.2 6.2 6.4 6.7 6.6 6.7 6.6 6.7 6.7 6.6 6.6 6.8 6.9 6.9 7.1 6.9 6.9 6.8 6.9 6.9 6.9 7.0 7.2 7.4 7.4 7.4 7.6 7.6 7.6 7.4 7.3 7.3
6.7 6.7 7.2 7.1 7.1 7.0 7.1 7.0 6.7 6.5 6.5 6.4 6.3 6.6 6.9 6.9 6.8 6.8 6.8 6.7 6.6 6.6 6.7 6.8 6.9 7.0 6.9 6.7 6.7 6.9 7.1 7.2 7.3 7.4 7.6 7.6 7.6 7.6 7.7 7.5 7.4 7.2 7.1
6.9 7.3 7.3 7.3 7.2 7.3 7.3 7.2 6.9 6.8 6.6 6.7 6.8 7.0 7.2 7.3 7.3 7.2 7.1 7.0 6.9 6.9 6.9 6.9 7.1 7.2 7.4 7.4 7.4 7.3 7.3 7.2 7.2 7.3 7.5 7.6 8.0 7.7 7.5 7.3 7.2 7.2 7.3
7.7 7.6 7.6 7.6 7.8 7.8 7.6 7.4 7.4 7.3 7.1 7.1 7.2 7.3 7.5 7.7 7.7 7.7 7.7 7.5 7.5 7.6 7.5 7.3 7.2 7.3 7.4 7.6 7.6 7.6 7.6 7.8 7.7 7.6 7.7 7.9 7.9 7.9 7.6 7.7 7.6 7.5 7.3
8.2 8.1 8.0 8.1 8.3 8.2 8.0 7.9 7.7 7.5 7.6 7.6 7.5 7.6 7.8 8.1 8.0 8.1 8.0 8.0 8.1 8.1 7.9 7.7 7.7 7.9 7.9 7.6 7.4 7.5 7.8 7.9 7.8 7.6 7.5 7.9 7.8 7.5 7.5 7.3 7.2 7.0 7.2
8.7 8.8 8.6 8.7 8.6 8.4 8.3 8.3 8.1 7.9 7.9 8.1 8.1 8.0 8.2 8.3 8.2 8.0 7.9 8.1 8.1 8.1 8.0 7.8 7.8 7.9 7.9 7.7 7.5 7.6 7.8 8.5 8.0 7.8 7.8 7.8 7.8 7.8 7.8 7.4 7.5 7.1 7.0
9.1 9.0 8.5 8.5 8.5 8.4 8.2 8.2 8.2 8.2 8.2 8.1 8.2 8.2 8.2 8.4 8.3 8.2 8.0 7.9 8.0 8.0 8.3 8.5 8.5 8.5 8.5 8.5 8.1 8.3 8.5 8.8 8.3 8.4 8.5 8.4 8.3 8.4 8.2 8.0 7.8 7.2 7.2
8.9 9.0 8.6 8.5 8.5 8.5 8.2 8.0 8.2 8.3 8.2 8.3 8.4 8.4 8.5 8.5 8.4 8.3 8.3 8.2 8.3 8.1 8.2 8.5 8.5 8.5 8.4 8.3 8.3 8.5 8.7 8.8 8.5 8.5 8.6 8.5 8.7 8.7 8.4 7.9 7.5 6.8 6.8
8.7 8.7 8.7 8.8 8.6 8.7 8.6 8.5 8.5 8.5 8.5 8.5 8.6 8.6 8.6 8.7 8.7 8.6 8.6 8.6 8.6 8.5 8.6 8.5 8.3 8.2 8.3 8.4 8.5 8.5 8.3 8.1 8.1 8.2 8.0 8.1 8.3 8.1 8.1 8.3 8.5 7.8 6.5
8.8 8.9 8.9 8.9 8.8 8.7 8.8 9.0 8.7 8.7 8.6 8.6 8.7 8.8 8.9 8.9 9.0 9.0 8.8 8.8 8.9 9.0 9.0 8.9 8.7 8.6 8.5 8.2 8.1 8.0 8.0 8.0 8.0 7.8 7.9 8.0 8.1 7.8 7.2 7.4 7.5 7.4 7.1
8.6 9.0 9.0 9.0 8.9 8.9 8.6 8.7 8.8 9.2 8.7 8.7 8.7 8.8 8.9 9.0 9.0 9.1 9.1 9.0 9.0 8.9 9.0 8.9 8.7 8.6 8.4 8.2 8.1 8.0 7.9 7.9 7.8 7.8 7.8 8.0 7.9 7.4 6.9 6.5 6.4 6.5 6.2
7.9 8.0 8.2 8.4 8.4 8.4 8.5 8.3 8.1 8.4 8.2 8.4 8.4 8.5 8.7 8.8 8.8 8.9 8.9 8.9 8.9 8.8 8.6 8.6 8.3 8.0 7.9 8.0 7.9 7.8 7.9 7.8 7.8 8.1 8.1 8.1 7.8 7.1 6.7 6.7 6.5 5.1 5.1
7.5 7.4 7.5 7.7 7.9 7.9 8.0 8.0 8.1 7.9 8.0 8.1 8.2 8.3 8.5 8.4 8.3 8.3 8.2 8.3 8.1 7.8 7.7 7.7 7.6 7.5 7.7 7.7 7.9 7.8 7.9 7.9 8.1 7.9 8.0 8.1 7.5 7.3 7.0 6.6 6.3 5.7 5.2
7.7 7.6 7.4 7.2 7.1 7.2 7.4 7.5 7.5 7.6 7.6 7.8 8.0 8.0 8.0 8.0 8.1 8.1 7.9 7.7 7.5 7.5 7.4 7.4 7.4 7.6 7.8 7.8 7.7 7.6 7.7 7.9 7.7 7.6 7.5 7.1 7.0 6.7 6.8 6.4 6.3 5.4 4.5
7.8 7.8 7.7 7.6 7.5 7.4 7.4 7.4 7.4 7.4 7.5 7.5 7.6 7.7 7.7 7.7 7.7 7.5 7.5 7.3 7.4 7.3 7.3 7.2 7.4 7.6 7.7 7.5 7.5 7.6 7.6 7.6 7.6 7.5 7.2 7.0 6.8 6.6 6.5 6.6 6.8 6.1 5.5
6.9 7.2 7.3 7.5 7.5 7.4 7.3 7.3 7.3 7.5 7.6 7.6 7.6 7.4 7.3 7.4 7.4 7.4 7.4 7.3 7.3 7.2 7.1 7.1 7.2 7.3 7.4 7.4 7.3 7.4 7.5 7.4 7.3 7.0 6.8 6.7 6.6 6.2 6.2 6.2 6.5 6.3 5.3
6.7 7.1 7.3 7.4 7.5 7.4 7.3 7.3 7.4 7.5 7.4 7.2 7.1 7.1 7.1 7.2 7.1 7.1 7.1 7.1 7.0 6.9 7.0 7.1 7.3 7.4 7.4 7.4 7.3 7.2 7.3 7.1 6.8 6.6 6.8 6.5 6.2 6.1 5.6 5.5 5.8 6.2 5.7
6.6 6.9 7.3 7.4 7.4 7.4 7.3 7.2 6.6 6.7 6.1 6.2 6.5 6.8 6.8 6.9 6.7 6.5 6.5 6.6 6.8 7.0 7.2 7.3 7.2 7.2 7.3 7.3 7.2 7.0 6.9 6.6 6.4 6.5 6.5 6.1 6.1 6.0 5.5 5.0 5.0 4.4 4.4
6.8 7.1 7.2 7.2 7.2 7.1 6.9 6.8 6.7 6.4 5.9 5.8 5.7 6.1 6.3 6.4 6.4 6.4 6.5 6.7 6.9 7.0 7.0 7.1 7.1 7.1 6.9 6.7 6.6 6.4 6.2 6.2 6.3 6.3 6.0 5.7 6.0 6.1 5.7 5.2 4.9 4.5 4.6
6.7 6.8 7.0 7.1 7.0 6.7 6.5 6.2 6.5 6.5 6.3 6.2 6.2 6.1 6.1 6.1 6.2 6.3 6.4 6.5 6.5 6.6 6.6 6.5 6.3 6.2 6.3 6.3 6.1 6.0 6.1 6.1 6.1 5.8 5.4 5.6 5.6 5.7 5.8 5.7 5.3 5.1 4.9
5.6 6.1 6.2 6.2 6.7 6.2 6.1 6.0 6.1 6.1 6.2 6.1 6.0 5.9 6.0 6.0 6.0 6.1 6.1 6.2 6.2 6.2 6.1 6.1 6.1 6.1 5.9 5.8 5.9 5.8 5.7 5.7 5.5 5.3 5.5 5.3 5.3 5.5 5.7 5.6 5.3 5.2 5.1
5.8 6.0 5.9 6.0 6.0 5.0 5.2 5.6 5.6 5.5 5.3 5.5 5.6 5.5 5.4 5.3 5.4 5.6 5.6 5.6 5.8 5.9 6.1 5.9 5.9 5.8 5.9 5.7 5.8 5.4 5.1 4.5 4.5 4.9 4.9 5.0 5.1 5.1 5.1 5.3 5.1 5.1 5.1
5.1 5.4 5.5 5.9 6.3 6.0 6.1 5.5 5.2 4.9 4.6 5.1 5.3 5.3 5.3 5.4 5.5 5.6 5.6 5.6 5.6 5.6 5.7 5.8 5.8 5.6 5.6 5.3 4.9 4.4 4.2 4.3 4.5 4.5 4.4 4.7 4.7 4.8 4.7 4.9 4.8 4.7 4.8
Wind_Speed
19 18 17 15 15 13 10 10 10 8 9 7 8 8 8 9 8 9 8 7 8 6 5 7 8 5 4 4 3 2 3 3 4 3 3 2 4 6 9 18 19 19 18
19 18 18 15 15 14 13 11 11 11 8 9 7 9 10 10 10 11 10 9 10 9 9 7 9 4 6 5 4 6 5 4 4 5 3 3 6 5 6 6 13 17 17
18 18 16 15 14 14 14 12 11 11 8 9 8 10 12 11 10 10 11 11 10 11 11 11 11 6 8 5 5 6 4 3 4 4 4 2 4 3 4 4 5 10 15
18 17 16 16 15 15 15 14 13 12 11 11 12 12 11 10 11 11 12 12 12 11 11 11 12 11 13 10 7 8 6 5 4 4 5 5 5 4 3 4 5 5 8
17 17 17 16 16 15 14 14 14 14 14 14 12 12 11 11 10 12 12 12 12 12 11 12 13 14 17 15 9 9 8 8 6 8 8 4 4 4 5 4 9 8 6
19 19 18 16 16 16 15 14 14 14 15 14 15 14 14 11 14 17 15 12 13 13 13 12 14 15 16 18 20 21 14 12 12 8 11 12 14 10 6 9 8 4 7
17 17 16 15 15 16 15 14 15 15 14 15 15 15 15 15 17 19 20 13 12 13 14 13 12 11 14 14 16 20 19 20 23 15 14 15 15 13 11 8 13 11 13
15 15 15 15 16 15 14 15 14 13 15 14 14 14 15 13 15 18 19 17 14 15 15 15 16 16 14 13 14 14 15 18 17 14 20 21 17 13 13 15 16 14 10
16 17 16 16 16 15 16 16 15 14 13 14 14 15 15 15 16 18 15 14 16 17 15 15 17 18 16 14 14 16 16 18 15 26 28 29 27 21 19 8 8 8 10
16 18 16 16 16 17 17 17 14 14 14 12 13 14 16 16 15 18 17 11 14 12 14 17 18 19 14 15 14 15 18 17 14 14 11 17 23 21 18 16 14 12 12
10 10 13 16 18 16 15 13 12 13 12 13 13 12 14 14 14 18 20 14 13 11 12 12 11 15 19 18 20 18 20 18 17 14 15 13 13 14 13 13 18 15 13
8 11 12 13 12 11 14 12 12 12 12 12 11 10 10 12 14 15 20 23 18 14 13 11 11 15 17 20 17 21 21 16 13 13 13 14 12 11 11 13 19 18 17
4 8 10 10 11 12 13 12 10 11 11 10 9 9 8 7 8 16 21 22 23 13 13 13 13 12 12 9 15 16 13 10 11 12 13 15 14 15 14 14 16 19 21
6 3 5 6 7 11 9 9 9 10 10 9 8 8 7 6 8 7 9 10 17 10 14 11 7 6 8 8 5 7 6 8 10 11 13 14 13 12 13 12 13 13 15
5 4 2 4 6 5 3 0 6 8 8 9 10 8 7 6 8 10 9 7 8 9 4 3 5 5 6 6 5 6 5 5 7 9 10 12 12 12 13 12 12 13 16
5 3 2 2 3 5 6 4 10 5 4 2 2 6 2 3 9 8 7 7 7 12 3 3 2 3 3 3 4 4 4 5 6 8 8 10 11 12 13 13 13 14 16
3 5 3 2 3 5 5 7 5 3 14 15 11 10 7 10 8 10 10 10 7 6 1 1 0 2 2 3 4 3 4 5 7 7 8 10 11 13 15 14 10 8 13
5 5 4 3 3 4 6 6 5 5 5 4 11 9 10 11 10 9 10 7 3 4 2 2 1 0 1 2 3 3 4 4 6 7 9 11 12 12 12 12 11 12 14
4 3 3 3 3 4 5 6 6 6 6 5 4 5 5 9 9 10 5 3 3 2 2 1 1 2 3 3 4 4 4 5 5 5 8 9 11 10 10 8 5 9 4
3 5 4 4 4 6 6 7 7 7 6 5 5 3 2 3 3 3 3 2 2 1 1 2 2 3 3 3 3 3 5 5 5 5 6 8 6 5 4 4 4 6 6
4 4 6 6 6 6 7 9 8 8 6 6 4 2 3 5 5 4 4 3 3 1 1 1 2 3 3 3 3 3 4 4 5 5 4 5 4 3 4 4 4 4 5
5 5 6 7 7 8 8 8 8 7 7 7 7 6 11 6 5 5 5 5 5 6 6 5 5 5 5 5 6 4 5 5 5 4 4 3 3 3 2 3 3 2 6
5 7 8 8 9 12 10 8 8 7 7 6 6 7 7 6 6 6 6 5 5 6 6 6 6 6 6 7 6 6 6 7 6 5 4 3 3 2 1 1 1 1 2
4 7 8 7 7 9 10 10 8 9 8 8 8 7 6 6 6 7 7 6 7 7 7 7 7 9 7 6 6 9 7 9 9 6 5 3 3 2 0 1 2 3 4
7 7 8 9 9 9 8 8 9 9 8 7 7 7 6 6 6 7 7 7 7 8 9 8 7 10 11 13 14 18 20 18 11 11 5 4 5 5 3 3 3 3 3
8 8 8 8 9 9 9 7 9 10 9 7 7 7 6 7 6 6 7 7 7 7 9 7 11 17 19 16 22 24 19 20 15 12 4 4 5 4 4 4 5 3 4
Wind_Direction
193 194 196 200 202 198 189 189 191 185 198 198 190 197 195 196 194 196 201 193 205 219 213 212 234 205 221 217 219 197 215 170 213 288 229 258 210 220 231 224 230 230 236
191 193 198 197 196 199 200 190 188 193 189 201 187 196 204 204 199 201 209 205 204 213 224 224 241 220 227 212 211 226 218 201 198 250 251 255 218 218 227 218 225 230 228
191 193 195 196 193 196 201 197 191 192 175 194 192 204 210 211 205 203 209 210 210 214 214 220 234 221 240 219 208 229 233 200 196 219 257 249 245 205 231 232 220 225 230
190 193 193 195 196 200 201 202 199 195 189 196 205 213 213 207 209 208 208 212 214 218 214 217 225 221 233 232 219 221 219 224 203 213 234 242 229 230 215 211 242 218 231
188 192 197 195 196 200 203 202 202 203 204 204 204 214 211 207 210 212 211 214 216 219 217 220 226 225 223 225 224 231 209 223 222 233 244 224 218 203 210 203 229 236 225
189 195 196 193 195 199 201 202 201 205 209 208 213 211 213 213 208 204 206 212 216 219 223 223 230 227 228 222 222 231 217 225 233 230 245 246 248 235 227 225 228 198 252
189 195 195 195 198 201 201 197 202 207 206 212 213 214 217 216 205 205 207 215 217 222 227 230 232 232 231 235 232 238 239 231 230 235 241 245 248 231 224 218 226 224 233
188 192 193 192 197 199 198 202 204 204 208 212 217 217 221 222 206 207 208 219 227 229 227 229 233 239 232 224 234 238 239 242 237 237 245 252 248 245 222 226 233 235 250
188 195 194 193 194 194 200 204 204 202 208 214 216 216 218 224 207 206 198 220 229 235 234 231 234 239 236 214 230 239 248 250 238 237 239 246 249 235 225 222 230 216 240
197 197 191 191 196 197 201 205 204 205 212 211 218 218 218 223 207 204 198 219 232 235 240 242 231 235 227 210 224 238 250 257 253 251 244 249 249 251 236 228 242 230 242
192 183 189 197 200 199 200 203 204 204 209 215 220 220 220 215 220 200 200 216 228 235 239 243 243 222 225 221 216 236 245 256 253 251 258 255 250 242 240 225 233 236 238
171 185 192 197 199 197 197 199 202 203 210 215 217 224 223 220 208 202 204 210 221 229 237 241 243 229 223 221 223 236 246 251 256 260 262 264 262 252 237 228 223 227 228
180 196 186 177 191 199 196 198 198 201 208 213 217 223 223 206 208 201 206 213 223 230 238 242 243 241 238 245 243 250 252 256 256 260 261 262 260 261 252 240 230 232 233
73 95 177 187 194 202 200 195 200 203 210 216 215 219 214 204 205 199 214 223 233 230 247 255 268 271 264 261 258 236 227 234 242 253 260 266 274 273 266 251 236 230 233
35 30 46 188 189 161 98 215 212 211 213 207 215 206 201 207 211 205 207 207 216 221 215 213 243 248 258 260 257 257 254 230 236 248 257 266 270 270 266 265 253 244 247
24 1 342 284 176 162 158 118 50 20 2 43 227 174 86 79 139 147 144 145 154 143 153 201 217 228 243 266 275 289 294 305 311 311 296 287 283 279 276 267 268 256 245
359 295 278 269 189 161 159 162 132 56 73 52 62 90 107 132 116 123 116 99 109 116 174 151 295 358 354 350 345 329 312 312 311 302 301 299 295 291 288 282 276 282 273
330 276 273 266 196 160 156 146 142 136 113 72 34 58 64 85 91 114 120 97 65 41 74 123 136 53 342 295 278 274 275 276 309 307 302 303 298 289 286 288 285 277 274
3 353 356 66 72 100 123 134 127 110 105 109 107 66 57 64 63 80 76 87 120 121 124 122 211 239 263 269 277 283 280 282 284 295 307 311 310 296 290 291 309 315 280
79 82 68 81 78 101 100 109 105 99 98 99 93 92 74 26 53 41 61 82 90 106 178 237 253 258 276 280 276 273 306 301 302 295 311 322 322 345 355 1 5 42 53
124 91 93 79 73 73 92 105 107 108 96 87 77 52 39 94 74 52 44 35 27 352 301 308 327 326 333 320 278 280 298 289 284 300 317 325 330 347 351 348 12 24 73
143 131 113 107 101 90 91 91 96 94 96 99 91 70 69 67 63 58 41 24 10 18 13 12 19 17 2 349 343 337 314 308 309 309 301 306 328 341 326 339 7 107 119
156 134 123 113 112 111 100 96 93 89 87 75 71 67 61 62 56 51 44 29 22 25 20 22 17 7 2 359 353 347 341 335 328 312 292 306 309 283 349 57 139 130 132
107 119 118 111 111 114 114 108 98 86 89 80 74 68 54 49 53 51 44 37 37 37 31 31 24 12 354 352 349 348 336 334 311 293 303 294 267 249 197 138 117 106 109
98 102 108 111 105 103 96 97 104 96 83 81 85 82 72 62 54 51 44 44 38 35 33 28 21 15 6 3 3 356 340 329 318 311 292 258 249 232 207 185 177 143 123
86 91 88 87 94 95 93 90 94 92 90 81 72 69 68 66 53 45 44 40 41 38 35 30 26 24 19 12 358 342 338 345 347 337 294 249 244 242 239 211 196 187 157